Location: Haliburton Scout Reserve
(45.0900°N, 78.3200°W)
Time: 03:05:02
(UTC-04:00)

PCSat - Pass Details

Date: 27 May 2022
Orbit: 784 x 795 km, 67.1° (Epoch: 24 June)

Event Time Altitude Azimuth Distance (km) Brightness Sun altitude
Rises 02:58:16 0° 325° (NW) 3,305 13.2 -19.2°
Reaches altitude 10° 03:00:43 10° 323° (NW) 2,371 12.4 -19.0°
Maximum altitude 03:06:05 64° 243° (WSW) 877 9.5 -18.6°
Enters shadow 03:09:24 23° 168° (SSE) 1,616 10.8 -18.3°
